Location: Sungai Bunut
(2.6333°N, 113.7333°E)
Time: 10:42:12
(UTC+00:00)

A-11 Canister half - Pass Details

Date: 08 December 2023
Orbit: 1526 x 1682 km, 47.3° (Epoch: 04 March)

Event Time Altitude Azimuth Distance (km) Brightness Sun altitude
Exits shadow 17:50:53 12° 96° (E) 3,595 11.1 -59.6°
Drops below altitude 10° 17:51:29 10° 99° (E) 3,733 11.3 -59.5°
Sets 17:55:13 0° 111° (ESE) 4,700 12.0 -58.8°
